This is the latest recevied weather packets stored in our database for station/object N2PPN. If no packets are shown the sender has not sent any weather packets the latest 10 day(s).
| Time | Temp. | Humidity | Pressure | Rain* | Wind** | Luminosity | Snow |
|---|---|---|---|---|---|---|---|
| 1777980002 | 13.89° C | 91% | 1014.9 hPa | 0 mm | - | 72 W/m² | - |
| 1777979696 | 13.33° C | 91% | 1014.7 hPa | 0 mm | - | 105 W/m² | - |
| 1777979393 | 13.33° C | 92% | 1014.7 hPa | 0 mm | - | 89 W/m² | - |
| 1777979090 | 12.78° C | 93% | 1014.8 hPa | 0 mm | - | 78 W/m² | - |
| 1777978786 | 12.78° C | 93% | 1014.5 hPa | 0 mm | - | 78 W/m² | - |
| 1777978483 | 12.78° C | 94% | 1014.7 hPa | 0 mm | - | 57 W/m² | - |
| 1777978179 | 12.22° C | 95% | 1014.6 hPa | 0 mm | - | 38 W/m² | - |
| 1777977877 | 12.22° C | 95% | 1014.5 hPa | 0 mm | - | 35 W/m² | - |
| 1777977572 | 12.22° C | 96% | 1014.4 hPa | 0 mm | - | 28 W/m² | - |
| 1777977270 | 11.67° C | 96% | 1014.2 hPa | 0 mm | - | 25 W/m² | - |
| 1777976967 | 11.67° C | 96% | 1014.1 hPa | 0 mm | - | 23 W/m² | - |
| 1777976665 | 11.67° C | 96% | 1014.2 hPa | 0 mm | - | 20 W/m² | - |
| 1777976361 | 11.67° C | 96% | 1014 hPa | 0 mm | - | 15 W/m² | - |
| 1777976061 | 11.67° C | 96% | 1014.1 hPa | 0 mm | - | 13 W/m² | - |
| 1777975757 | 11.67° C | 97% | 1013.9 hPa | 0 mm | - | 10 W/m² | - |
| 1777975454 | 11.67° C | 97% | 1013.6 hPa | 0 mm | - | 8 W/m² | - |
| 1777975149 | 11.67° C | 97% | 1013.8 hPa | 0 mm | - | 5 W/m² | - |
| 1777974846 | 11.11° C | 97% | 1013.6 hPa | 0 mm | - | 4 W/m² | - |
| 1777974543 | 11.11° C | 97% | 1013.6 hPa | 0 mm | - | 2 W/m² | - |
| 1777974240 | 11.11° C | 97% | 1013.5 hPa | 0 mm | - | 1 W/m² | - |
| 1777973935 | 11.11° C | 97% | 1013.9 hPa | 0 mm | - | 1 W/m² | - |
| 1777973633 | 11.11° C | 97% | 1013.7 hPa | 0 mm | - | 0 W/m² | - |
| 1777973330 | 11.11° C | 97% | 1013.8 hPa | 0 mm | - | 0 W/m² | - |
| 1777973028 | 11.67° C | 97% | 1013.6 hPa | 0 mm | - | 0 W/m² | - |
| 1777972725 | 11.67° C | 96% | 1013.7 hPa | 0 mm | - | 0 W/m² | - |
* Rain latest hour (hover to see other rain measurements)
** Current wind speed in m/s (hover to see current wind gust speed)